TRANSPORTER-15 DD (66765 NORAD) Tracking and Keplerian Element Data

This shows tracking and keplerian element data for the satellite.

Feedback or suggestion? Click here.




ElementValue
Catalog66765
NameTRANSPORTER-15 DD
Epoch Orbit324
Epoch Day354.10878719
Epoch Year2025
RAAN65.7842
Inclination97.4432
Eccentricity0.0001775
Argument of Perigee122.5076
Mean Anonmoly237.633
Mean Motion15.18662089
Decay Rate8.073E-05
L11 66765U 25276DD 25354.10878719 .00008073 00000+0 39266-3 0 9998
L22 66765 97.4432 65.7842 0001775 122.5076 237.6330 15.18662089 3245



Live tracking and technical data element details for TRANSPORTER-15 DD (NORAD 66765). TRANSPORTER-15 DD can be tracked NOW for your location showing map with azimuth and elevation plus other details from your city location.







IsCatalogInMostPopularTable: catalog: 66765, numindb: 27
Update: records affected: 1



GetName: 66765 TRANSPORTER-15 DD

Hit Count: updated at: Mon, 20 Apr 2026 10:41:54 GMT